Weather History for Martha's Vineyard, MA

Change the Weather History Date:

Friday, January 18, 2013

  Actual Average Record
Temperature  
Mean Temperature 18 °F -  
Max Temperature 30 °F 35 °F 55 °F (1990)
Min Temperature 6 °F 19 °F 0 °F (2003)
Degree Days  
Heating Degree Days 47    
Moisture  
Dew Point 12 °F    
Average Humidity 68    
Maximum Humidity 93    
Minimum Humidity 33    
Precipitation  
Precipitation 0.03 in - - ()
Sea Level Pressure  
Sea Level Pressure 30.21 in    
Wind  
Wind Speed 12 mph (North)    
Max Wind Speed 21 mph    
Max Gust Speed 32 mph    
Visibility 6 miles    
Events Fog , Snow    
Averages and records for this station are not official NWS values.
T = Trace of Precipitation, MM = Missing Value Source: NWS Daily Summary

Daily Weather History Graph

Daily Weather History Graph

Search for Another Location

Airport:

Trip Planner

Search our weather history database for the weather conditions in past years. The results will help you decide how hot, cold, wet, or windy it might be!

Date:

Astronomy

Jan. 18, 2013 Rise Set
Actual Time 7:04 AM EST 4:41 PM EST
Civil Twilight 6:34 AM EST 5:11 PM EST
Nautical Twilight 6:00 AM EST 5:45 PM EST
Astronomical Twilight 5:27 AM EST 6:18 PM EST
Moon 10:35 AM EST (1/18) No Moon Set
Length of Visible Light 10h 37m
Length of Day
9h 37m
Waxing Crescent, 47% of the Moon is Illuminated
Jan 18
Waxing Crescent
Jan 18
First Quarter
Jan 26
Full
Feb 3
Last Quarter
Feb 10
New

Hourly Weather History & Observations

Time (EST) Temp. Windchill Dew Point Humidity Pressure Visibility Wind Dir Wind Speed Gust Speed Precip Events Conditions
12:53 AM 30.9 °F 22.2 °F 26.1 °F 82% 30.02 in 2.0 mi North 10.4 mph 19.6 mph 0.00 in Snow Light Snow
1:03 AM 30.2 °F 20.8 °F 26.6 °F 86% 30.03 in 1.5 mi North 11.5 mph - 0.00 in Snow Light Snow
1:17 AM 30.2 °F 20.2 °F 26.6 °F 86% 30.01 in 1.2 mi NNE 12.7 mph - 0.00 in Snow Light Snow
1:31 AM 30.2 °F 21.3 °F 26.6 °F 86% 30.02 in 1.8 mi NNE 10.4 mph 20.7 mph 0.00 in Snow Light Snow
1:53 AM 28.9 °F 18.6 °F 27.0 °F 92% 30.03 in 0.8 mi North 12.7 mph - 0.01 in Snow Light Snow
1:57 AM 28.4 °F 18.0 °F 26.6 °F 93% 30.01 in 1.0 mi NNE 12.7 mph 19.6 mph 0.00 in Snow Light Snow
2:21 AM 28.4 °F 18.5 °F 26.6 °F 93% 30.02 in 0.8 mi NNE 11.5 mph 21.9 mph 0.00 in Snow Light Snow
2:29 AM 28.4 °F 16.6 °F 26.6 °F 93% 30.04 in 0.8 mi North 16.1 mph 20.7 mph 0.00 in Snow Light Snow
2:53 AM 27.0 °F 13.9 °F 25.0 °F 92% 30.04 in 0.5 mi North 18.4 mph 24.2 mph 0.00 in Fog , Snow Snow
3:15 AM 26.6 °F 13.1 °F 24.8 °F 93% 30.00 in 0.5 mi North 19.6 mph 29.9 mph 0.01 in Fog , Snow Snow
3:42 AM 24.8 °F 11.1 °F 23.0 °F 93% 30.06 in 0.5 mi North 18.4 mph 26.5 mph 0.01 in Fog , Snow Snow
3:53 AM 25.0 °F 12.2 °F 23.0 °F 92% 30.04 in 0.5 mi North 16.1 mph 24.2 mph 0.01 in Fog , Snow Snow
4:37 AM 24.8 °F 14.6 °F 23.0 °F 93% 30.06 in 1.0 mi North 10.4 mph - 0.01 in   Mist
4:53 AM 25.0 °F 11.7 °F 21.9 °F 88% 30.05 in 1.5 mi North 17.3 mph 24.2 mph 0.01 in   Overcast
4:59 AM 24.8 °F 13.4 °F 21.2 °F 86% 30.04 in 2.0 mi NNE 12.7 mph 23.0 mph N/A   Overcast
5:12 AM 24.8 °F 12.4 °F 21.2 °F 86% 30.04 in 4.0 mi North 15.0 mph 20.7 mph N/A   Overcast
5:53 AM 26.1 °F 16.2 °F 19.9 °F 78% 30.09 in 10.0 mi NNE 10.4 mph 17.3 mph 0.00 in Snow Light Snow
6:53 AM 25.0 °F 13.1 °F 5.0 °F 43% 30.16 in 10.0 mi North 13.8 mph 24.2 mph 0.00 in   Overcast
7:53 AM 24.1 °F 9.8 °F 1.0 °F 37% 30.19 in 10.0 mi North 19.6 mph 28.8 mph N/A   Clear
8:53 AM 24.1 °F 11.0 °F 3.0 °F 40% 30.26 in 10.0 mi North 16.1 mph 26.5 mph N/A   Clear
9:53 AM 23.0 °F 8.0 °F 1.0 °F 39% 30.32 in 9.0 mi NNW 20.7 mph 32.2 mph N/A   Clear
10:53 AM 23.0 °F 9.2 °F -0.9 °F 35% 30.34 in 10.0 mi NNW 17.3 mph 26.5 mph N/A   Clear
11:53 AM 23.0 °F 8.3 °F -0.9 °F 35% 30.34 in 10.0 mi NNW 19.6 mph 25.3 mph N/A   Clear
12:53 PM 24.1 °F 12.0 °F -0.0 °F 35% 30.35 in 10.0 mi NNW 13.8 mph 21.9 mph N/A   Clear
1:53 PM 25.0 °F 12.6 °F -0.9 °F 33% 30.38 in 10.0 mi WNW 15.0 mph - N/A   Clear
2:53 PM 25.0 °F 13.6 °F -0.9 °F 33% 30.38 in 10.0 mi NW 12.7 mph - N/A   Clear
3:53 PM 25.0 °F 16.3 °F -0.9 °F 33% 30.41 in 10.0 mi NW 8.1 mph - N/A   Clear
4:53 PM 23.0 °F 15.8 °F -2.0 °F 34% 30.43 in 10.0 mi WNW 5.8 mph - N/A   Clear
5:53 PM 21.0 °F 16.2 °F -2.0 °F 36% 30.44 in 10.0 mi WNW 3.5 mph - N/A   Clear
6:53 PM 12.9 °F - 1.0 °F 59% 30.47 in 10.0 mi Calm Calm - N/A   Clear
7:53 PM 10.0 °F 3.6 °F 1.9 °F 70% 30.50 in 10.0 mi West 3.5 mph - N/A   Clear
8:53 PM 9.0 °F - 3.0 °F 77% 30.48 in 10.0 mi Calm Calm - N/A   Clear
9:53 PM 6.1 °F -0.9 °F -0.0 °F 76% 30.48 in 10.0 mi ESE 3.5 mph - N/A   Clear
10:53 PM 6.1 °F - 1.0 °F 80% 30.46 in 10.0 mi Calm Calm - N/A   Clear
11:53 PM 7.0 °F 0.1 °F 1.9 °F 80% 30.45 in 10.0 mi WSW 3.5 mph - N/A   Partly Cloudy